Weather in Santa Cruz de Tenerife

Spain     28°27′35″N   16°14′58″W
temp.,
°C
wind,
m/s
gust,
m/s
humid.,
%
clouds,
%
prec.,
mm/h
press.,
hPa
HPBL,
m
8 may, sat
sat801:00+18n557193 0.1 1020879
04:00+17n667972 0.1 1018694
07:00+18nnw667256 0.3 1018955
10:00+18nnw666648 0.0 1019999
13:00+19nnw666411 0.0 1019955
16:00+19nnw67630 0.0 1018875
19:00+19nnw77615 0.0 1018892
22:00+18nw676642 0.0 1019701
9 may, sun
sun901:00+18nw56700 0.0 1019534
04:00+17wnw56710 0.0 1018399
07:00+18wnw56710 0.0 1018387
10:00+19wnw34625 0.0 1018401
13:00+20w23645 0.0 1018428
16:00+20wnw34723 0.0 1018533
19:00+20w34751 0.0 1017358
22:00+19w45813 0.0 1018264
10 may, mon
mon1001:00+19nw458880 0.2 1018409
04:00+19nnw668451 0.1 1017605
07:00+18nnw568418 0.2 1018550
10:00+19n558223 0.1 1019626
13:00+19nne557610 0.1 1020680
16:00+20nne667619 0.0 1019787
19:00+19nne66753 0.0 1020747
22:00+18ne677832 0.0 1022771
11 may, tue
tue1101:00+18ne887972 0.2 1022820
04:00+18ne777399 0.1 10221007
07:00+18ne787034 0.1 10221079
10:00+18ne787082 0.0 10231069
13:00+18ne776837 0.1 10231072
16:00+19ne77674 0.0 1022952
19:00+18ne787015 0.0 1022982
22:00+18ne887127 0.0 10241016
12 may, wed
wed1201:00+18ne787337 0.0 10241004
04:00+18nne886963 0.0 1022991
07:00+17ne787361 0.1 1023901
10:00+18ne886852 0.0 10241067
13:00+18ne786874 0.1 10241057
16:00+19ne776983 0.0 1023936
19:00+18nne887346 0.0 1022873
22:00+18ne887695 0.0 1023851